Details From KTXK - Texarkana Rgnl Webb Fld
To KFLP - Marion Co Rgnl
Flight Number -
Tags Decoded
Created
Modified
Stats Distance 231 nm / 428 km
Max Altitude 0 ft / 0 m
Waypoints 6
Social Downloads 2
Likes 0
Share VATSIM

Download

Looking for another format? Having issues loading an existing format? Contact us
Advertisement - Login to hide

Notes

Decoded

Route

KTXK DEENS PGO FSM HRO MUVUE

ID Type Via Altitude Latitude Longitude Leg Dist Tot Dist Heading (true) Name
O KTXK APT - 0 ft / 0 m 33.46010˚ -93.99366˚ - 0 nm - -
DEENS FIX - 0 ft / 0 m 34.00743˚ -94.29794˚ 36 nm 36 nm 335° / 335° -
PGO VOR - 0 ft / 0 m 34.68044˚ -94.60900˚ 43 nm 79 nm 339° / 339° RICH MOUNTAIN VORTAC
FSM VOR - 0 ft / 0 m 35.38842˚ -94.27153˚ 45 nm 125 nm 21° / 21° FORT SMITH VORTAC
HRO VOR - 0 ft / 0 m 36.31831˚ -93.21328˚ 75 nm 201 nm 42° / 43° HARRISON VOR-DME
O MUVUE FIX - 0 ft / 0 m 36.26578˚ -92.59650˚ 30 nm 231 nm 96° / 96° -

Altitude Profile

Advertisement - Login to hide

Weather


0- 5 10 15 20 25 30 35+ Temperature / ° C

Clouds and Precipitation
Forecast for 2018-05-21 12:00 UTC. Updated 2 hours ago

Ground ~20,000 ft ~40,000 ft Winds

KTXK

Details ICAO KTXK (TXK)
Name TEXARKANA RGNL WEBB FLD
Region United States
Timezone America/Chicago (UTC-5.0)
Stats Elevation 390 ft / 119 m (AMSL)
Location 33.453857° -93.990669°
Runways 2
Magnetic Variation 1.453° E

METAR

KTXK 211253Z 00000KT 8SM OVC110 22/22 A3003 RMK AO2 SLP166 T02220222

Decode

TAF

KTXK 211149Z 2112/2212 VRB03KT P6SM BKN120 BKN250 FM211500 VRB04KT P6SM FEW030 BKN120 BKN250 FM211800 21006KT P6SM VCTS BKN040CB BKN150 OVC250 TEMPO 2120/2124 5SM -TSRA OVC040CB FM220100 VRB03KT P6SM FEW150 SCT250

Decode

Departure Runways

ID Width Length Bearing (true) Bearing (mag) Surface Threshold Offset Overrun Length
04 144 ft / 44 m 6,605 ft / 2,013 m 44.84° 43.39° Asphalt 0 ft / 0 m 0 ft / 0 m
13 100 ft / 30 m 5,202 ft / 1,586 m 135.13° 133.68° Asphalt 640 ft / 195 m 0 ft / 0 m
22 144 ft / 44 m 6,605 ft / 2,013 m 224.85° 223.40° Asphalt 0 ft / 0 m 0 ft / 0 m
31 100 ft / 30 m 5,202 ft / 1,586 m 315.13° 313.68° Asphalt 0 ft / 0 m 0 ft / 0 m

KFLP

Details ICAO KFLP
Name MARION CO RGNL
Region United States
Timezone America/Chicago (UTC-5.0)
Stats Elevation 719 ft / 219 m (AMSL)
Location 36.290895° -92.590253°
Runways 1
Magnetic Variation 0.357° E

METAR

KFLP 211256Z AUTO 00000KT 7SM FEW002 BKN060 20/19 A3008 RMK AO2 SLP179 T02000189 PNO $

Decode

TAF

Not found

Destination Runways

ID Width Length Bearing (true) Bearing (mag) Surface Threshold Offset Overrun Length
04 75 ft / 23 m 4,998 ft / 1,524 m 51.08° 50.72° Asphalt 900 ft / 274 m 200 ft / 61 m
22 75 ft / 23 m 4,998 ft / 1,524 m 231.09° 230.73° Asphalt 0 ft / 0 m 350 ft / 107 m